Tracking 19562 objects as of 25-Mar-2019
HD Live streaming from Space Station
objects crossing your sky now

GALAXY 3C

Track GALAXY 3C now!
GALAXY 3C is classified as:


NORAD ID: 27445
Int'l Code: 2002-030A
Perigee: 35,786.4 km
Apogee: 35,801.0 km
Inclination: 0.0 °
Period: 1,436.1 minutes
Semi major axis: 42164 km
RCS: 36.41 m2 (large)
Launch date: June 15, 2002
Source: United States (US)
Launch site: SEA LAUNCH (SEAL)

Direct-to-home broadcast of video and Internet; 24 C-band, 16 Ku-band; North America
aabbcc
Your satellite tracking list
Your tracking list is empty




NASA's NSSDC Master Catalog

Two Line Element Set (TLE):
1 27445U 02030A   19083.65048378 -.00000173  00000-0  00000+0 0  9990
2 27445   0.0194 214.6493 0001733 305.9706 160.2942  1.00271819 61461
Source of the keplerian elements: AFSPC